Home   Weather   Gurdaspur   Past weeks

Flag for India Past Weather in Gurdaspur, Punjab, India — Yesterday and Last 2 Weeks

Now
79 °F

Partly cloudy.


Feels Like: 79 °F
Forecast: 67 / 98 °F
Wind: 7 mph from Northeast

Location: Amritsar Airport

Current Time: Apr 30, 2017 at 10:32:20 pm

Latest Report: Apr 30, 2017 at 9:30 pm


Visibility: 2 mi

Pressure: 29.83 "Hg

Humidity: 30%

Dew Point: 45 °F

Location of GurdaspurLocation

Past Weather in Gurdaspur — Graph

°F

Gurdaspur Temperature Yesterday

Maximum temperature yesterday: 95 °F (at 3:00 pm)
Minimum temperature yesterday: 73 °F (at 4:30 am)
Average temperature yesterday: 83 °F

High & Low Weather Summary for the Past Weeks

 TemperatureHumidityPressure
High109 °F (Apr 18, 4:30 pm)100% (Apr 22, 4:30 am)29.86 "Hg (Apr 22, 4:30 am)
Low64 °F (Apr 24, 6:30 am)8% (Apr 19, 1:00 pm)29.45 "Hg (Apr 20, 5:00 pm)
Average86 °F38%29.68 "Hg
* Reported Apr 15 8:30 pm — Apr 30 9:00 pm, Gurdaspur, Weather by CustomWeather, © 2017

Note: Actual official high and low records may vary slightly from our data, if they occured in-between our weather recording intervals... More about our weather records

Advertising

Gurdaspur Weather History for the Previous 24 Hours

Scroll right to see more
 ConditionsComfort  
Time TempWeatherWind HumidityBarometerVisibility
9:00 pm
Sun, Apr 30
79 °FPartly cloudy.8 mph30%29.80 "Hg2 mi
8:30 pm79 °FPartly cloudy.17 mph30%29.80 "Hg2 mi
8:00 pm81 °FPartly cloudy.18 mph26%29.80 "Hg1 mi
7:30 pm88 °FBroken clouds.24 mph25%29.80 "Hg1 mi
7:00 pm90 °FScattered clouds.3 mph26%29.74 "Hg2 mi
6:30 pm91 °FScattered clouds.2 mph24%29.74 "Hg2 mi
5:30 pm95 °FScattered clouds.2 mph18%29.71 "Hg3 mi
4:30 pm95 °FScattered clouds.2 mph18%29.74 "Hg3 mi
3:30 pm93 °FScattered clouds.5 mph21%29.77 "Hg3 mi
3:00 pm93 °FScattered clouds.3 mph21%29.77 "Hg3 mi
2:30 pm93 °FScattered clouds.3 mph26%29.80 "Hg3 mi
1:30 pm91 °FClear.3 mph30%29.80 "Hg4 mi
1:00 pm90 °FClear.9 mph31%29.83 "Hg4 mi
12:30 pm90 °FClear.7 mph31%29.83 "Hg4 mi
12:00 pm88 °FClear.7 mph33%29.83 "Hg4 mi
11:30 am86 °FClear.9 mph35%29.83 "Hg4 mi
11:00 am86 °FClear.10 mph35%29.83 "Hg4 mi
10:30 am84 °FClear.13 mph37%29.83 "Hg4 mi
10:00 am84 °FHaze.14 mph37%29.83 "Hg3 mi
9:00 am79 °FHaze.15 mph51%29.83 "Hg3 mi
8:30 am77 °FHaze.14 mph54%29.83 "Hg3 mi
8:00 am79 °FBroken clouds.15 mph48%29.80 "Hg3 mi
7:30 am75 °FBroken clouds.14 mph57%29.77 "Hg3 mi
7:00 am73 °FBroken clouds.9 mph65%29.77 "Hg3 mi
6:30 am73 °FScattered clouds.8 mph65%29.74 "Hg2 mi
5:30 am72 °FMostly cloudy.3 mph69%29.74 "Hg1 mi
4:30 am72 °FThunderstorms. Partly cloudy.6 mph69%29.71 "Hg1 mi
12:30 am77 °FThunderstorms. Partly cloudy.10 mph47%29.71 "Hg1 mi
11:30 pm
Sat, Apr 29
79 °FThunderstorms. Partly cloudy.14 mph45%29.74 "Hg1 mi
11:00 pm81 °FThunderstorms. Mostly cloudy.14 mph39%29.74 "Hg1 mi
10:30 pm82 °FPartly cloudy.14 mph32%29.74 "Hg1 mi
10:00 pm81 °FPassing clouds.12 mph34%29.74 "Hg2 mi
Weather by CustomWeather, © 2017

See weather overviewHow to use our weather pages